Home   Weather   Ashgabat   Past weeks

Flag for Turkmenistan Past Weather in Ashgabat, Turkmenistan — Yesterday and Last 2 Weeks

Now
61 °F

Sprinkles. Overcast.


Feels Like: 61 °F
Forecast: 51 / 62 °F
Wind: 13 mph from Northwest

Location: Ashgabat

Current Time: Apr 26, 2017 at 5:41:19 am

Latest Report: Apr 26, 2017 at 5:00 am


Visibility: N/A

Pressure: 30.21 "Hg

Humidity: 77%

Dew Point: 54 °F

Location of AshgabatLocation

Past Weather in Ashgabat — Graph

°F

Ashgabat Temperature Yesterday

Maximum temperature yesterday: 79 °F (at 5:00 pm)
Minimum temperature yesterday: 61 °F (at 7:00 am)
Average temperature yesterday: 71 °F

High & Low Weather Summary for the Past Weeks

 TemperatureHumidityPressure
High95 °F (Apr 24, 4:00 pm)100% (Apr 17, 3:00 am)30.30 "Hg (Apr 17, 3:00 am)
Low52 °F (Apr 18, 6:00 am)11% (Apr 24, 4:00 pm)29.59 "Hg (Apr 15, 4:00 am)
Average68 °F56%29.97 "Hg
* Reported Apr 11 4:00 am — Apr 26 4:00 am, Ashgabat, Weather by CustomWeather, © 2017

Note: Actual official high and low records may vary slightly from our data, if they occured in-between our weather recording intervals... More about our weather records

Advertising

Ashgabat Weather History for the Previous 24 Hours

Scroll right to see more
 ConditionsComfort  
Time TempWeatherWind HumidityBarometerVisibility
4:00 am
Wed, Apr 26
64 °FOvercast.12 mph56%30.15 "HgN/A
3:00 am64 °FOvercast.14 mph52%30.15 "HgN/A
2:00 am66 °FOvercast.15 mph40%30.15 "HgN/A
1:00 am66 °FPassing clouds.12 mph40%30.15 "HgN/A
12:00 am66 °FPartly cloudy.9 mph46%30.12 "HgN/A
11:00 pm
Tue, Apr 25
70 °FPartly cloudy.9 mph40%30.12 "HgN/A
10:00 pm72 °FPartly cloudy.12 mph41%30.09 "HgN/A
9:00 pm73 °FPassing clouds.13 mph44%30.07 "HgN/A
8:00 pm75 °FBroken clouds.14 mph39%30.04 "HgN/A
7:00 pm77 °FBroken clouds.15 mph36%30.01 "HgN/A
6:00 pm79 °FScattered clouds.15 mph37%29.98 "HgN/A
5:00 pm79 °FPassing clouds.15 mph37%29.98 "HgN/A
4:00 pm77 °FScattered clouds.14 mph39%29.98 "HgN/A
3:00 pm77 °FScattered clouds.13 mph39%30.01 "HgN/A
2:00 pm75 °FScattered clouds.13 mph44%30.01 "HgN/A
1:00 pm73 °FBroken clouds.10 mph47%30.04 "HgN/A
12:00 pm70 °FBroken clouds.13 mph53%30.04 "HgN/A
11:00 am70 °FBroken clouds.15 mph53%30.04 "HgN/A
10:00 am68 °FBroken clouds.12 mph60%30.04 "HgN/A
9:00 am66 °FPartly sunny.13 mph60%30.01 "HgN/A
8:00 am64 °FPartly sunny.14 mph60%30.01 "HgN/A
7:00 am61 °FPassing clouds.10 mph72%29.98 "HgN/A
6:00 am63 °FPassing clouds.9 mph68%29.95 "HgN/A
5:00 am63 °FPassing clouds.5 mph68%29.95 "Hg6 mi
Weather by CustomWeather, © 2017

See weather overviewHow to use our weather pages